Allentown, PA

10:29 PM EST on December 10, 2019 (GMT -0500)
Allentown

Weather History for KXLL - June, 2019

Change the Weather History Date:

Sunday, June 9, 2019

  Actual Average (WUND) Record (WUND)
Temperature  
Mean Temperature - -  
Max Temperature 59 °F - - (-1)
Min Temperature 59 °F - - (-1)
Moisture  
Dew Point 50 °F    
Average Humidity 72    
Maximum Humidity 72    
Minimum Humidity 72    
Precipitation  
Precipitation 0.00 in - - ()
Sea Level Pressure  
Sea Level Pressure 30.26 in    
Wind  
Wind Speed 6 mph ()    
Max Wind Speed 21 mph    
Max Gust Speed 25 mph    
Visibility 10.0 miles    
Events      
Averages and records for this station are not official NWS values.
T = Trace of Precipitation, MM = Missing Value Source: Averaged Metar Reports

Daily Weather History Graph

Daily Weather History Graph

Search for Another Location

Airport or City:

Astronomy

Jun. 09, 2019 Rise Set
Actual Time 5:31 AM EDT 8:31 PM EDT
Civil Twilight 4:58 AM EDT 9:04 PM EDT
Nautical Twilight 4:16 AM EDT 9:46 PM EDT
Astronomical Twilight 3:27 AM EDT 10:35 PM EDT
Moon 12:07 PM EDT (6/9) 1:09 AM EDT (6/9)
Length of Visible Light 16h 06m
Length of Day
15h 00m
Waxing Crescent, 43% of the Moon is Illuminated
Jun 9
Waxing Crescent
Jun 10
First Quarter
Jun 17
Full
Jun 25
Last Quarter
Jul 2
New

Hourly Weather History & Observations

Time (EDT) Temp. Dew Point Humidity Pressure Visibility Wind Dir Wind Speed Gust Speed Precip Events Conditions
12:15 AM - - N/A% 30.23 in 10.0 mi Calm Calm - N/A   Clear
12:35 AM - - N/A% 30.24 in 10.0 mi ENE 3.5 mph - N/A   Clear
12:55 AM - - N/A% 30.24 in 10.0 mi Calm Calm - N/A   Clear
1:15 AM - - N/A% 30.25 in 10.0 mi Calm Calm - N/A   Clear
1:35 AM - - N/A% 30.25 in 10.0 mi Calm Calm - N/A   Clear
1:55 AM - - N/A% 30.25 in 10.0 mi Calm Calm - N/A   Clear
2:15 AM - - N/A% 30.25 in 10.0 mi Calm Calm - N/A   Clear
2:35 AM - - N/A% 30.25 in 10.0 mi Calm Calm - N/A   Clear
2:55 AM - - N/A% 30.25 in 10.0 mi Calm Calm - N/A   Clear
3:15 AM - - N/A% 30.25 in 10.0 mi Calm Calm - N/A   Clear
3:35 AM - - N/A% 30.25 in 10.0 mi Calm Calm - N/A   Clear
3:55 AM - - N/A% 30.24 in 10.0 mi ENE 4.6 mph - N/A   Clear
4:15 AM - - N/A% 30.24 in 10.0 mi NNE 5.8 mph - N/A   Clear
4:35 AM - - N/A% 30.24 in 10.0 mi NE 6.9 mph - N/A   Clear
4:55 AM - - N/A% 30.24 in 10.0 mi NE 5.8 mph - N/A   Clear
5:15 AM - - N/A% 30.25 in 10.0 mi NE 6.9 mph - N/A   Clear
5:35 AM - - N/A% 30.26 in 10.0 mi NE 5.8 mph - N/A   Clear
5:55 AM - - N/A% 30.27 in 10.0 mi ENE 5.8 mph - N/A   Clear
6:15 AM - - N/A% 30.27 in 10.0 mi ENE 5.8 mph - N/A   Clear
6:35 AM - - N/A% 30.28 in 10.0 mi ENE 6.9 mph - N/A   Clear
6:55 AM - - N/A% 30.28 in 10.0 mi NE 4.6 mph - N/A   Clear
7:15 AM 59.0 °F 50.0 °F 72% 30.29 in 10.0 mi NNE 5.8 mph - N/A   Clear
7:35 AM - - N/A% 30.29 in 10.0 mi NE 6.9 mph - N/A   Clear
7:55 AM - - N/A% 30.29 in 10.0 mi NE 9.2 mph - N/A   Clear
8:15 AM - - N/A% 30.29 in 10.0 mi NE 9.2 mph - N/A   Clear
8:35 AM - - N/A% 30.29 in 10.0 mi NE 11.5 mph - N/A   Clear
8:55 AM - - N/A% 30.29 in 10.0 mi ENE 8.1 mph - N/A   Clear
9:15 AM - - N/A% 30.29 in 10.0 mi NE 10.4 mph - N/A   Clear
9:35 AM - - N/A% 30.29 in 10.0 mi NE 10.4 mph - N/A   Clear
9:55 AM - - N/A% 30.29 in 10.0 mi East 9.2 mph - N/A   Clear
10:15 AM - - N/A% 30.29 in 10.0 mi East 8.1 mph - N/A   Clear
10:35 AM - - N/A% 30.29 in 10.0 mi ESE 12.7 mph 17.3 mph N/A   Clear
10:55 AM - - N/A% 30.29 in 10.0 mi East 12.7 mph - N/A   Clear
11:15 AM - - N/A% 30.29 in 10.0 mi ESE 12.7 mph 18.4 mph N/A   Clear
11:35 AM - - N/A% 30.29 in 10.0 mi East 11.5 mph 20.7 mph N/A   Clear
11:55 AM - - N/A% 30.29 in 10.0 mi East 8.1 mph 19.6 mph N/A   Clear
12:15 PM - - N/A% 30.29 in 10.0 mi East 13.8 mph 20.7 mph N/A   Clear
12:35 PM - - N/A% 30.29 in 10.0 mi East 16.1 mph 24.2 mph N/A   Clear
12:55 PM - - N/A% 30.28 in 10.0 mi ENE 18.4 mph - N/A   Clear
1:15 PM - - N/A% 30.28 in 10.0 mi East 15.0 mph 20.7 mph N/A   Clear
1:35 PM - - N/A% 30.28 in 10.0 mi ESE 15.0 mph 23.0 mph N/A   Clear
1:55 PM - - N/A% 30.27 in 10.0 mi East 20.7 mph 25.3 mph N/A   Clear
2:15 PM - - N/A% 30.27 in 10.0 mi ESE 13.8 mph 21.9 mph N/A   Clear
2:35 PM - - N/A% 30.27 in 10.0 mi ESE 16.1 mph 23.0 mph N/A   Clear
2:55 PM - - N/A% 30.26 in 10.0 mi ESE 11.5 mph 19.6 mph N/A   Clear
3:15 PM - - N/A% 30.27 in 10.0 mi ESE 19.6 mph 24.2 mph N/A   Clear
3:35 PM - - N/A% 30.27 in 10.0 mi ESE 10.4 mph 19.6 mph N/A   Clear
3:55 PM - - N/A% 30.27 in 10.0 mi East 18.4 mph 23.0 mph N/A   Clear
4:15 PM - - N/A% 30.26 in 10.0 mi East 15.0 mph 20.7 mph N/A   Clear
4:35 PM - - N/A% 30.25 in 10.0 mi East 19.6 mph 23.0 mph N/A   Clear
4:55 PM - - N/A% 30.25 in 10.0 mi ESE 18.4 mph 25.3 mph N/A   Clear
5:15 PM - - N/A% 30.25 in 10.0 mi East 12.7 mph 23.0 mph N/A   Clear
5:35 PM - - N/A% 30.25 in 10.0 mi East 12.7 mph 21.9 mph N/A   Clear
5:55 PM - - N/A% 30.25 in 10.0 mi East 10.4 mph 17.3 mph N/A   Clear
6:15 PM - - N/A% 30.25 in 10.0 mi East 13.8 mph - N/A   Clear
6:35 PM - - N/A% 30.25 in 10.0 mi East 11.5 mph 16.1 mph N/A   Clear
6:55 PM - - N/A% 30.24 in 10.0 mi East 13.8 mph 21.9 mph N/A   Clear
7:15 PM - - N/A% 30.24 in 10.0 mi East 11.5 mph 16.1 mph N/A   Clear
7:35 PM - - N/A% 30.24 in 10.0 mi East 13.8 mph 18.4 mph N/A   Clear
7:55 PM - - N/A% 30.24 in 10.0 mi East 13.8 mph 17.3 mph N/A   Clear
8:15 PM - - N/A% 30.25 in 10.0 mi East 9.2 mph - N/A   Clear
8:35 PM - - N/A% 30.25 in 10.0 mi ENE 9.2 mph - N/A   Clear
8:55 PM - - N/A% 30.26 in 10.0 mi East 9.2 mph - N/A   Clear
9:15 PM - - N/A% 30.26 in 10.0 mi ENE 9.2 mph - N/A   Clear
9:35 PM - - N/A% 30.26 in 10.0 mi East 10.4 mph - N/A   Clear
9:55 PM - - N/A% 30.25 in 10.0 mi ENE 11.5 mph - N/A   Scattered Clouds
10:15 PM - - N/A% 30.25 in 10.0 mi East 6.9 mph - N/A   Mostly Cloudy
10:35 PM - - N/A% 30.25 in 10.0 mi East 9.2 mph 17.3 mph N/A   Mostly Cloudy
10:55 PM - - N/A% 30.25 in 10.0 mi East 6.9 mph - N/A   Mostly Cloudy
11:15 PM - - N/A% 30.25 in 10.0 mi ENE 10.4 mph - N/A   Clear
11:35 PM - - N/A% 30.24 in 10.0 mi ENE 5.8 mph - N/A   Scattered Clouds
11:55 PM - - N/A% 30.24 in 10.0 mi NE 5.8 mph - N/A   Scattered Clouds